Location: Tr�vern
(48.0333°N, 4.6000°W)
Time: 18:10:52
(UTC+00:00)

BREEZE-M TANK - Pass Details

Date: 14 July 2020
Orbit: 491 x 24796 km, 45.2° (Epoch: 12 August)

Event Time Altitude Azimuth Distance (km) Brightness Sun altitude
Exits shadow 03:36:31 - 254° (WSW) 1,848 4.5 -8.1°
Reaches altitude 10° 03:36:51 10° 252° (WSW) 1,679 4.3 -8.1°
Maximum altitude 03:39:48 59° 172° (S) 680 2.6 -7.8°
Drops below altitude 10° 03:45:13 10° 92° (E) 3,050 6.8 -7.1°
Sets 03:49:58 0° 90° (E) 5,373 8.1 -6.5°
